Tracking 19706 objects as of 16-Jun-2019
HD Live streaming from Space Station
objects crossing your sky now

TNS 0-2

Track TNS 0-2 now!
10-day predictions


NORAD ID: 42914
Int'l Code: 1998-067ND
Perigee: 323.3 km
Apogee: 325.8 km
Inclination: 51.6 °
Period: 90.9 minutes
Semi major axis: 6695 km
RCS: Unknown
Launch date: November 20, 1998
Source: United States (US)
Launch site: TYURATAM MISSILE AND SPACE COMPLEX (TTMTR)
aabbcc
Your satellite tracking list
Your tracking list is empty




NASA's NSSDC Master Catalog

Two Line Element Set (TLE):
1 42914U 98067ND  19167.52635672  .00045164  00000-0  19377-3 0  9990
2 42914  51.6345 301.1825 0001897 199.0036 161.0897 15.84608654104676
Source of the keplerian elements: AMSAT